Location: st. louis
(38.4966°N, 90.2087°W)
Time: 16:31:07
(UTC-05:00)

ISS - Pass Details

Date: 09 October 2013
Orbit: 402 x 404 km, 51.6° (Epoch: 24 May)

Event Time Altitude Azimuth Distance (km) Brightness Sun altitude
Rises 20:00:21 0° 260° (W) 2,414 2.0 -18.3°
Reaches altitude 10° 20:02:44 10° 275° (W) 1,540 0.9 -18.7°
Maximum altitude 20:05:39 25° 332° (NNW) 922 -1.2 -19.3°
Enters shadow 20:07:18 18° 13° (NNE) 1,151 -1.1 -19.6°
